Погода Каменная Степь

Погода Каменная Степь : погода сейчас, прогноз погоды и архив. Всё, что Вы хотите узнать о погоде Каменная Степь!

Поиск расширенной информации на нашем сайте:

Другие новости

Новости СМИ2

Главная страница сайта

Новости сайта

03.07.2017

Напоминаем, что на нашем специализированном сайте Метеоцентр.Азия вы можете получить высокодетализированные автоматические прогнозы погоды по пунктам России, СНГ и мира в авиационном формате (включающие направление и скорость ветра, видимость, явления погоды, количество и форму облачности, нижнюю и верхнюю границу облачности).


Погода Каменная Степь - сегодня

Время (UTC), дата Ветер
(°,м/с) 
Видим.   Явления Облачность Т
(°С)
Тd
(°С)
f(%) Тe
(°С)
Pmin
(гПа)
dP
(гПа)
Po
(мм)
O2
(г/м3)
Тmin Tmax R s Состояние
почвы
00 12.02.18 090 (В) 10 км    ясно 
-10.7 -14.3 75 -16  1020.3  -0.1  746  314           
06 12.02.18 070 (В) 11000 м    9/0 средняя, верхняя 
[Ac As|Ci fib]
-12.5 -15.2 80 -18  1020.9  0.5  746  317  -12.6         
09 12.02.18 070 (В) 12000 м    8/0 средняя, верхняя 
[Ac As|Ci fib]
-9 -12.4 76 -14  1021  0.4  747  312           
21 12.02.18 090 (В) 6{10}  10 км    ясно 
-9.9 -12.5 81 -15  1021.9  0.3  747  314           
00 13.02.18 090 (В) 10 км    ясно 
-10.8 -13.6 80 -16  1022.7  0.7  748  315           
09 13.02.18 070 (В) 7{11}  11000 м    10/0 средняя 
[As op]
-10.1 -12.9 80 -16  1023.4  0.5  749  314           
15 13.02.18 070 (В) 7-10{11}  10 км    10/10 600 м 
[Sc]
-8.6 -11.9 77 -14  1023.6  0.6  749  313    -7.6       
21 13.02.18 090 (В) 4000 м  слаб. снег  10/10 300 м 
[Frnb|Ns]
-9.1 -11.1 85 -14  1025.2  0.7  750  314           
03 14.02.18 090 (В) 4000 м  слаб. снег  10/10 600 м 
[Sc]
-9.4 -11.9 82 -14  1025.8  0.3  750  314  -9.6    0.5  равномерный
сухой снег
100% 
06 14.02.18 090 (В) 7000 м  слаб. снег  10/10 600 м 
[Sc]
-9.4 -11 88 -13  1026.8  751  314           
09 14.02.18 090 (В) 7000 м  слаб. снег  10/10 600 м 
[Sc]
-8.2 -10.5 83 -13  1027.7  752  313           
18 14.02.18 090 (В) 4000 м  слаб. снег  10/10 600 м 
[Sc]
-7.7 -9.5 87 -12  1030.2  754  313           
21 14.02.18 090 (В) 10 км  позёмок{снег}  10/10 600 м 
[Sc]
-7.5 -9.2 88 -11  1030.9  0.5  754  313           
03 15.02.18 090 (В) 10 км  позёмок  10/10 600 м 
[Sc]
-7.8 -10 84 -11  1032.8  755  314  -8    0.0  равномерный
сухой снег
100% 
09 15.02.18 110 (В) 11000 м  позёмок  10/10 600 м 
[Sc]
-6.8 -9.7 80 -11  1034.7  757  314           
18 15.02.18 090 (В) 10 км  позёмок  10/10 600 м 
[Sc]
-5.9 -8.9 79 -10  1036.2  0.7  758  313           
21 15.02.18 110 (В) 10 км  позёмок  10/8 600 м средняя 
[Sc|Ac As]
-5.8 -8.4 82 -9  1036.4  0.2  758  313           
03 16.02.18 100 (В) 10 км  позёмок  10/8 600 м средняя 
[Sc|Ac As]
-6.9 -9.4 82 -12  1036  -0.3  758  314  -6.9      равномерный
сухой снег
100% 
15 16.02.18 090 (В) 7{11}  10 км  позёмок  10/10 600 м 
[Sc]
-5 -9.1 73 -10  1033.7  -1.7  756  311    -4.3  0.3     
03 17.02.18 090 (В) 4000 м  слаб. снег  10/10 300 м 
[Frnb|Ns]
-6.8 -8.4 88 -11  1031  -1.4  754  313  -7    равномерный
сухой снег
100% 
15 17.02.18 110 (В) 6{10}  10 км  позёмок{снег}  10/10 600 м 
[Sc]
-3.8 -5.6 87 -8  1026.1  -0.8  751  307    -3.8  0.0     
03 18.02.18 110 (В) 2000 м  снег  10/10 300 м 
[Frnb|Ns]
-5.8 -6.5 95 -9  1022.6  -1  748  309  -5.8    10  равномерный
сухой снег
100% 
09 18.02.18 160 (Ю) 7000 м  слаб. снег  10/10 600 м 
[Sc]
-4.7 -7.1 83 -6  1022.1  748  307           
18 18.02.18 160 (Ю) 10 км  {снег}  10/10 600 м 
[Sc]
-3.8 -5.6 87 -5  1022  0.3  748  306           
21 18.02.18 180 (Ю) 10 км    10/10 600 м 
[Sc]
-4.1 -5.3 91 -5  1021.9  -0.2  748  306           
Время (UTC), дата Ветер
(°,м/с) 
Видим.   Явления Облачность Т
(°С)
Тd
(°С)
f(%) Тe
(°С)
Pmin
(гПа)
dP
(гПа)
Po
(мм)
O2
(г/м3)
Тmin Tmax R s Состояние
почвы

Для получения пояснительной информации подведите курсор к названию столбца.

ПОГОДА Каменная Степь - архив

Всё, что Вы хотите узнать о погоде Каменная Степь - удобно и подробно!

Выберите нужную дату (начиная с 1 января 2015* года) и нажмите кнопку "Найти".
Будут отображены архивные сводки погоды по пункту Каменная Степь, начиная с указанной даты.


Отображать данные в формате CSV (для использования в таблицах Excel)


Внимание! Наш архив погоды предназначен исключительно для личного некоммерческого использования в познавательных целях. Если Вам необходимы официальные справки о состоянии погоды (для производственных, юридических, коммерческих и т.п. целей), обращайтесь в органы Росгидромета.

*Примечание: данная дата относится к архиву по метеостанциям СССР (Россия, СНГ, Балтия).
Архив по метеостанциям Зарубежной Европы и Азии (кроме Китая) хранится 10 дней, по другим регионам земного шара (Китай, Африка, Америка, Австралия, Океания) - 1 день.

Каменная Степь - район местоположения метеостанции


Название, широта, долгота, высота метеостанции:
Каменная Степь 51.1°ш. 40.7°д. 194 м над ур. моря [Российская Федерация]

Дополнительная информация

В oтличие oт бoльшинства пoгoдных сайтoв мы публикуем пoдрoбную метеoинфoрмацию в детальнoм прoфессиoнальнoм фoрмате.

Характеристики температуры и влажнoсти вoздуха измеряются на высoте 2 м в тени вдали oт зданий и деревьев.
Скoрoсть ветра измеряется на высoте 10 м (на урoвне рoста челoвека скoрoсть ветра ниже в 1.5-2 раза). Если метеoстанция нахoдится в гoрoде или в лесу, тo скoрoсть ветра занижена на 2-4 м/с пo сравнению с oткрытым местoм. Скoрoсть ветра над акватoриями крупных рек и oзёр, а также на вершинах хoлмoв на 2-5 м/с выше, чем в oбычных услoвиях.
Атмoсфернoе давление в разных тoчках местнoсти мoжет значительнo oтличаться oт давления на метеoстанции, в зависимoсти oт услoвий рельефа (при пoдъёме на 10 м давление пoнижается примернo на 1 мм рт.ст.).